[[{"header":{"parameterUnit":"m.s-1","parameterCategory":1,"la1":30.2991,"la2":30.254,"lo1":-89.0895,"lo2":-89.0444,"dy":0.0017,"dx":0.0017,"nx":28,"ny":28,"refTime":"2024-08-11T21:00:00:Z","depth":0,"parameterNumber":2,"parameterNumberName":"U-component_of_WINDS"},"data":[0,0,0,0,0,0,0,0,0,0,0,0,0,0,0,0,0,0,0,0,0,0,0,0,0,0,0,0,0,0,0,0,0,0,0,0,0,0,0,0,0,0,0,0,0,0,0,0,0,0,0,0,0,0,0,0,0,0,-0.5147,-0.5146,0,-0.5029,-0.5028,-0.5027,-0.4883,-0.4881,-0.4879,-0.4877,-0.4756,-0.4755,-0.4754,0,0,0,0,0,0,0,0,0,0,0,0,0,-0.5247,-0.5246,-0.5147,-0.5145,-0.5144,-0.503,-0.5028,-0.5026,-0.4884,-0.4881,-0.4878,-0.4876,-0.4756,-0.4755,-0.4754,0,0,0,0,0,0,0,0,0,0,0,0,0,-0.5174,-0.5246,-0.5147,-0.5059,-0.505,-0.503,-0.5028,-0.5026,-0.4884,-0.4881,-0.4877,-0.4874,-0.4757,-0.4755,-0.4753,-0.481,0,0,-0.4748,-0.4747,0,0,0,0,0,0,0,0,-0.5179,-0.5171,-0.5073,-0.5065,-0.5055,-0.4967,-0.5019,-0.4954,-0.4885,-0.4947,-0.4877,-0.4873,-0.4829,-0.4821,-0.4806,-0.4805,-0.4799,-0.4748,-0.4747,-0.4746,-0.4746,0,0,0,0,0,0,0,-0.5184,-0.5175,-0.51,-0.5072,-0.5061,-0.5025,-0.5011,-0.5006,-0.4908,-0.4941,-0.4931,-0.4919,-0.4823,-0.4808,-0.4803,-0.4798,-0.4748,-0.4747,-0.4746,-0.4745,-0.4838,-0.4841,0,0,0,0,0,0,-0.5202,-0.518,-0.5104,-0.5097,-0.511,-0.5026,-0.501,-0.4999,-0.4908,-0.4891,-0.4922,-0.4913,-0.4813,-0.4805,-0.4798,-0.486,-0.4746,-0.4745,-0.4744,-0.4834,-0.4839,-0.4842,0,0,0,0,0,0,-0.5205,-0.5197,-0.5109,-0.5136,-0.5122,-0.5028,-0.5016,-0.4998,-0.4983,-0.4893,-0.4875,-0.4925,-0.481,-0.48,-0.4809,-0.4853,-0.4744,-0.4742,-0.483,-0.4836,-0.4841,-0.4984,0,0,0,0,0,0,-0.5209,-0.5199,-0.5219,-0.5137,-0.5121,-0.5122,-0.5019,-0.4999,-0.4981,-0.4968,-0.4891,-0.4875,-0.4807,-0.4812,-0.4807,-0.4849,-0.4741,-0.4826,-0.4833,-0.4839,-0.4975,-0.4993,-0.5009,0,0,0,0,0,-0.5213,-0.5264,-0.5221,-0.5213,-0.5145,-0.5125,-0.5115,-0.5036,-0.4985,-0.5005,-0.4947,-0.4878,-0.4849,-0.4814,-0.4807,-0.485,-0.4823,-0.4831,-0.4838,-0.4967,-0.4989,-0.5009,0,0,0,0,0,0,-0.5354,-0.5252,-0.5203,-0.5229,-0.5187,-0.5101,-0.5124,-0.5062,-0.5033,-0.5022,-0.4924,-0.4908,-0.4929,-0.4889,-0.4852,-0.49,-0.4826,-0.4833,-0.4926,-0.4946,-0.4963,-0.4973,-0.474,0,0,0,0,0,-0.5388,-0.538,-0.5291,-0.5323,-0.5304,-0.5218,-0.5207,-0.5149,-0.5101,-0.5082,-0.5025,-0.4981,-0.4962,-0.4952,-0.4929,-0.4968,-0.495,-0.4993,-0.5011,-0.5025,-0.5033,-0.5052,-0.5071,-0.4868,-0.4868,-0.4868,0,0,-0.5458,-0.5402,-0.5403,-0.535,-0.531,-0.5305,-0.5204,-0.5202,-0.5198,-0.5082,-0.5087,-0.5043,-0.4988,-0.5012,-0.502,-0.498,-0.5085,-0.5035,-0.5048,-0.5047,-0.5062,-0.5081,-0.5098,-0.4873,-0.4872,-0.4872,0,0,-0.5584,-0.554,-0.5563,-0.5525,-0.5467,-0.5409,-0.5415,-0.5338,-0.5305,-0.5308,-0.5222,-0.5215,-0.5184,-0.5148,-0.5126,-0.524,-0.5176,-0.5235,-0.5326,-0.5346,-0.5362,-0.5376,-0.5418,-0.5434,-0.5243,-0.5243,-0.5244,0,-0.568,-0.5668,-0.5582,-0.5586,-0.5566,-0.5461,-0.5483,-0.5451,-0.5389,-0.5377,-0.5333,-0.5294,-0.5248,-0.5264,-0.5292,-0.5277,-0.5281,-0.5244,-0.5367,-0.538,-0.5391,-0.543,-0.5446,-0.5251,-0.525,-0.5249,-0.5249,0,-0.5789,-0.5783,-0.5807,-0.5751,-0.5733,-0.5746,-0.5662,-0.5655,-0.5599,-0.5546,-0.5552,-0.5494,-0.5459,-0.5458,-0.5403,-0.5466,-0.5443,-0.5385,-0.5308,-0.542,-0.5455,-0.5469,-0.5262,-0.526,-0.5257,-0.5255,0,0,-0.6001,-0.5897,-0.5908,-0.5881,-0.5809,-0.5803,-0.5811,-0.5777,-0.5774,-0.5734,-0.574,-0.5716,-0.5662,-0.5637,-0.5577,-0.5594,-0.569,-0.5533,-0.553,-0.5566,-0.5758,-0.5805,-0.5823,-0.5646,-0.5649,-0.5651,-0.5764,0,-0.6115,-0.6125,-0.6048,-0.6079,-0.6072,-0.5973,-0.598,-0.5938,-0.5889,-0.5876,-0.5821,-0.5808,-0.5736,-0.5721,-0.5733,-0.5676,-0.5728,-0.5667,-0.5652,-0.5652,-0.5671,-0.5841,-0.589,-0.5999,-0.5777,-0.5779,-0.5781,0,-0.625,-0.6219,-0.625,-0.6177,-0.6172,-0.618,-0.6144,-0.6133,-0.6082,-0.6045,-0.6019,-0.595,-0.5954,-0.588,-0.5885,-0.5845,-0.5834,-0.5806,-0.5808,-0.5805,-0.5725,-0.5845,-0.6032,-0.605,-0.5801,-0.5799,-0.5798,0,-0.6404,-0.637,-0.6384,-0.6364,-0.6279,-0.6288,-0.6253,-0.6199,-0.6184,-0.6152,-0.6141,-0.611,-0.6093,-0.6071,-0.5996,-0.5949,-0.601,-0.593,-0.5981,-0.5983,-0.5999,-0.6,-0.619,-0.599,-0.599,-0.5989,-0.5989,0,-0.6541,-0.6564,-0.6452,-0.6461,-0.6484,-0.6395,-0.642,-0.6376,-0.6329,-0.6328,-0.6239,-0.624,-0.614,-0.6129,-0.607,-0.6085,-0.6077,-0.6048,-0.6033,-0.6057,-0.6061,-0.605,-0.6041,-0.5994,-0.5993,-0.5992,-0.5991,0,-0.6718,-0.6643,-0.6653,-0.6572,-0.6553,-0.6574,-0.6505,-0.651,-0.6455,-0.6455,-0.645,-0.6365,-0.6348,-0.6271,-0.6236,-0.6196,-0.6231,-0.6199,-0.6249,-0.6239,-0.6295,-0.6292,-0.6486,-0.6508,-0.6293,-0.6295,-0.6297,0,-0.6811,-0.6826,-0.6748,-0.6741,-0.6711,-0.67,-0.6685,-0.6598,-0.6585,-0.6529,-0.6542,-0.6518,-0.6495,-0.6473,-0.6409,-0.6382,-0.6349,-0.6419,-0.6345,-0.637,-0.6353,-0.6354,-0.6355,-0.6436,-0.6439,-0.6441,-0.6443,0,-0.6984,-0.6947,-0.6928,-0.6897,-0.6881,-0.6853,-0.6818,-0.6818,-0.6721,-0.6712,-0.6694,-0.6676,-0.6641,-0.6619,-0.6582,-0.6545,-0.6479,-0.6466,-0.6477,-0.6503,-0.6533,-0.652,-0.6295,-0.6463,-0.6461,-0.6459,-0.6458,-0.6457,-0.7123,-0.7133,-0.708,-0.7062,-0.7027,-0.6998,-0.6999,-0.6945,-0.6929,-0.6894,-0.6843,-0.6834,-0.6783,-0.6726,-0.6695,-0.6686,-0.6648,-0.6663,-0.6667,-0.6673,-0.6686,-0.6533,-0.6679,-0.6678,-0.6677,-0.6677,-0.6676,0,-0.7293,-0.7254,-0.7239,-0.7195,-0.7181,-0.7119,-0.7078,-0.7072,-0.7064,-0.7023,-0.7002,-0.6983,-0.6961,-0.6895,-0.6867,-0.6873,-0.6842,-0.6869,-0.6868,-0.6862,-0.6721,-0.6715,-0.6895,-0.6895,-0.6895,-0.6895,-0.6894,-0.6894,-0.7381,-0.7395,-0.7352,-0.7348,-0.7308,-0.7298,-0.728,-0.7253,-0.722,-0.7203,-0.7185,-0.7142,-0.7091,-0.7059,-0.7037,-0.7018,-0.7013,-0.705,-0.7022,-0.6892,-0.6871,-0.6851,-0.6846,-0.7049,-0.705,-0.7163,-0.7164,-0.7165]},{"header":{"parameterUnit":"m.s-1","parameterCategory":1,"la1":30.2991,"la2":30.254,"lo1":-89.0895,"lo2":-89.0444,"dy":0.0017,"dx":0.0017,"nx":28,"ny":28,"refTime":"2024-08-11T21:00:00:Z","depth":0,"parameterNumber":3,"parameterNumberName":"V-component_of_WINDS"},"data":[0,0,0,0,0,0,0,0,0,0,0,0,0,0,0,0,0,0,0,0,0,0,0,0,0,0,0,0,0,0,0,0,0,0,0,0,0,0,0,0,0,0,0,0,0,0,0,0,0,0,0,0,0,0,0,0,0,0,1.0739,1.0739,0,1.0751,1.0751,1.0751,1.0751,1.0751,1.0751,1.0751,1.0761,1.0761,1.0762,0,0,0,0,0,0,0,0,0,0,0,0,0,1.0712,1.0713,1.0739,1.0739,1.0739,1.0751,1.0751,1.0751,1.0751,1.0751,1.0751,1.0751,1.0761,1.0761,1.0762,0,0,0,0,0,0,0,0,0,0,0,0,0,1.0724,1.0713,1.0739,1.0741,1.0741,1.0751,1.0751,1.0751,1.0751,1.0751,1.0751,1.0751,1.0761,1.0761,1.0762,1.077,0,0,1.0764,1.0764,0,0,0,0,0,0,0,0,1.0723,1.0725,1.074,1.0741,1.0741,1.0749,1.0745,1.0758,1.0751,1.0747,1.0751,1.0751,1.0757,1.0758,1.0761,1.077,1.0771,1.0764,1.0764,1.0764,1.0765,0,0,0,0,0,0,0,1.0722,1.0724,1.0744,1.0741,1.0741,1.074,1.0741,1.0748,1.0753,1.0748,1.0748,1.0749,1.0757,1.076,1.0761,1.0771,1.0764,1.0764,1.0765,1.0765,1.0785,1.0785,0,0,0,0,0,0,1.0722,1.0724,1.0743,1.0744,1.0732,1.074,1.0742,1.0747,1.0753,1.0754,1.0749,1.0749,1.0759,1.076,1.0761,1.077,1.0764,1.0765,1.0765,1.0785,1.0785,1.0785,0,0,0,0,0,0,1.0721,1.0724,1.0743,1.0734,1.0736,1.0741,1.0747,1.0747,1.075,1.0755,1.0755,1.0752,1.0759,1.076,1.0767,1.077,1.0765,1.0766,1.0785,1.0785,1.0785,1.0787,0,0,0,0,0,0,1.072,1.0723,1.0728,1.0734,1.0737,1.075,1.0747,1.0748,1.0752,1.0751,1.0757,1.0757,1.0759,1.0766,1.0768,1.0771,1.0766,1.0784,1.0785,1.0785,1.0787,1.0788,1.0788,0,0,0,0,0,1.0719,1.0728,1.0728,1.073,1.0742,1.075,1.0752,1.0754,1.0752,1.0755,1.0758,1.0757,1.0769,1.0767,1.0769,1.0772,1.0784,1.0785,1.0785,1.0787,1.0788,1.0788,0,0,0,0,0,0,1.0722,1.0729,1.0729,1.074,1.0744,1.075,1.0755,1.0755,1.076,1.0759,1.0761,1.0762,1.0769,1.0771,1.0768,1.0779,1.0776,1.0777,1.0777,1.0778,1.0778,1.0778,1.0767,0,0,0,0,0,1.0724,1.073,1.0736,1.0745,1.0747,1.075,1.0754,1.0755,1.076,1.0761,1.0764,1.0768,1.0772,1.0775,1.078,1.0787,1.0787,1.079,1.079,1.0791,1.0791,1.0793,1.0794,1.0787,1.0787,1.0787,0,0,1.0727,1.0732,1.0736,1.0745,1.0749,1.0754,1.0752,1.0759,1.0762,1.0762,1.0769,1.0771,1.0774,1.0781,1.0784,1.0783,1.0793,1.0791,1.0792,1.0792,1.0794,1.0794,1.0795,1.0787,1.0787,1.0787,0,0,1.0737,1.0742,1.0749,1.0752,1.0757,1.0759,1.0761,1.0766,1.0767,1.0774,1.0773,1.0777,1.0785,1.0787,1.0789,1.0797,1.0796,1.0798,1.0801,1.0803,1.0803,1.0804,1.0805,1.0805,1.0798,1.0798,1.0798,0,1.0741,1.075,1.0752,1.0758,1.0761,1.0761,1.0767,1.077,1.0776,1.0778,1.0776,1.0785,1.0788,1.0794,1.0795,1.0798,1.0798,1.0797,1.0803,1.0804,1.0804,1.0805,1.0806,1.0799,1.0798,1.0798,1.0798,0,1.0753,1.0759,1.0764,1.077,1.0774,1.078,1.0781,1.0784,1.0784,1.0786,1.0791,1.0794,1.0798,1.0799,1.08,1.0805,1.0804,1.0803,1.0801,1.0805,1.0806,1.0806,1.0799,1.0799,1.0799,1.0799,0,0,1.0766,1.0772,1.0773,1.0775,1.078,1.0784,1.0788,1.0793,1.0794,1.0798,1.0801,1.0806,1.0805,1.0807,1.0807,1.0809,1.0813,1.0808,1.0808,1.0808,1.0816,1.0817,1.0817,1.0812,1.0812,1.0812,1.0816,0,1.0775,1.0785,1.0786,1.0793,1.0798,1.0796,1.08,1.0803,1.0803,1.0806,1.0807,1.081,1.0809,1.081,1.0811,1.0812,1.0814,1.0812,1.0813,1.0813,1.0812,1.0818,1.0819,1.0822,1.0816,1.0816,1.0816,0,1.0787,1.0791,1.0799,1.0801,1.0803,1.0807,1.0809,1.0812,1.0814,1.0814,1.0816,1.0815,1.0818,1.0816,1.0819,1.0817,1.0818,1.0818,1.0818,1.0818,1.0815,1.0817,1.0824,1.0824,1.0817,1.0817,1.0817,0,1.0794,1.0801,1.0806,1.0807,1.081,1.0812,1.0814,1.0815,1.0817,1.0819,1.0819,1.0821,1.0822,1.0823,1.0823,1.0821,1.0825,1.0823,1.0824,1.0824,1.0826,1.0825,1.0831,1.0827,1.0827,1.0827,1.0827,0,1.0803,1.0808,1.0809,1.0812,1.0816,1.0816,1.082,1.0821,1.0822,1.0824,1.0823,1.0825,1.0824,1.0825,1.0825,1.0827,1.0827,1.0827,1.0826,1.0826,1.0826,1.0827,1.0826,1.0827,1.0827,1.0827,1.0827,0,1.0812,1.0812,1.0818,1.0819,1.082,1.0823,1.0824,1.0826,1.0826,1.0828,1.0829,1.0829,1.083,1.0829,1.0831,1.083,1.0832,1.0832,1.0832,1.0831,1.0832,1.0832,1.0838,1.0838,1.0834,1.0834,1.0834,0,1.0817,1.0821,1.0822,1.0824,1.0825,1.0828,1.0829,1.0828,1.083,1.0831,1.0832,1.0833,1.0834,1.0836,1.0835,1.0836,1.0835,1.0837,1.0835,1.0835,1.0834,1.0833,1.0833,1.0837,1.0837,1.0838,1.0838,0,1.0827,1.0827,1.0829,1.0831,1.0833,1.0834,1.0835,1.0836,1.0835,1.0837,1.0838,1.0839,1.0839,1.084,1.084,1.084,1.0838,1.0838,1.0838,1.0838,1.0838,1.0837,1.0832,1.0838,1.0838,1.0838,1.0838,1.0838,1.0833,1.0836,1.0837,1.0839,1.0839,1.084,1.0842,1.0841,1.0843,1.0844,1.0843,1.0844,1.0843,1.0843,1.0843,1.0843,1.0842,1.0842,1.0842,1.0842,1.0842,1.0838,1.0843,1.0843,1.0843,1.0843,1.0843,0,1.0842,1.0842,1.0844,1.0845,1.0846,1.0845,1.0846,1.0846,1.0847,1.0847,1.0848,1.0848,1.0848,1.0847,1.0847,1.0847,1.0846,1.0847,1.0846,1.0846,1.0843,1.0843,1.0847,1.0847,1.0847,1.0847,1.0847,1.0847,1.0846,1.085,1.0849,1.0852,1.0852,1.0853,1.0853,1.0853,1.0853,1.0853,1.0854,1.0853,1.0852,1.0851,1.085,1.085,1.0849,1.085,1.0849,1.0847,1.0846,1.0846,1.0845,1.085,1.085,1.0852,1.0852,1.0852]}]]